When you browse on this site, cookies collect data to enhance your experience and personalize the content and advertising you see.
Visit our Privacy Policy to learn more. By continuing to use the site, you agree to this use of cookies and data.
  • In Spain
  • List of Countries
  • For 7 days
  • Water Temperature
  • Weather Map
  • Weather Widgets
  • user-avatar
    Login

    Hourly Weather Kropyl'nyky

    Today, 14 October, Monday

    Time Temperature Precipitation Wind Pressure Humidity
    00:00 +13°C° 0 mm 2 mps 739 mmHg 74%
    01:00 +12°C° 0 mm 2 mps 739 mmHg 74%
    02:00 +12°C° 0 mm 1 mps 739 mmHg 75%
    03:00 +12°C° 0 mm 2 mps 739 mmHg 75%
    04:00 +12°C° 0 mm 2 mps 739 mmHg 75%
    05:00 +12°C° 0 mm 2 mps 738 mmHg 75%
    06:00 +12°C° 0 mm 2 mps 739 mmHg 74%
    07:00 +13°C° 0 mm 2 mps 739 mmHg 73%
    08:00 +13°C° 0 mm 2 mps 739 mmHg 73%
    09:00 +15°C° 0 mm 2 mps 739 mmHg 67%
    10:00 +17°C° 0 mm 2 mps 739 mmHg 61%
    11:00 +19°C° 0 mm 2 mps 739 mmHg 55%
    12:00 +21°C° 0 mm 2 mps 739 mmHg 53%
    13:00 +23°C° 0 mm 2 mps 739 mmHg 50%
    14:00 +24°C° 0 mm 2 mps 739 mmHg 47%
    15:00 +23°C° 0 mm 2 mps 738 mmHg 52%
    16:00 +22°C° 0 mm 1 mps 738 mmHg 57%
    17:00 +20°C° 0 mm 1 mps 738 mmHg 62%
    18:00 +19°C° 0 mm 1 mps 738 mmHg 66%
    19:00 +18°C° 0 mm 1 mps 738 mmHg 69%
    20:00 +15°C° 0 mm 1 mps 738 mmHg 72%
    21:00 +15°C° 0 mm 1 mps 738 mmHg 73%
    22:00 +14°C° 0 mm 1 mps 738 mmHg 74%
    23:00 +14°C° 0 mm 1 mps 738 mmHg 74%

    Tomorrow, 15 October, Tuesday

    Time Temperature Precipitation Wind Pressure Humidity
    00:00 +13°C° 0 mm 1 mps 737 mmHg 74%
    01:00 +13°C° 0 mm 2 mps 737 mmHg 74%
    02:00 +13°C° 0 mm 2 mps 737 mmHg 74%
    03:00 +13°C° 0 mm 2 mps 737 mmHg 74%
    04:00 +12°C° 0 mm 2 mps 737 mmHg 74%
    05:00 +12°C° 0 mm 2 mps 736 mmHg 74%
    06:00 +12°C° 0 mm 2 mps 736 mmHg 72%
    07:00 +13°C° 0 mm 2 mps 737 mmHg 71%
    08:00 +13°C° 0 mm 2 mps 737 mmHg 69%
    09:00 +14°C° 0 mm 3 mps 736 mmHg 64%
    10:00 +17°C° 0 mm 3 mps 736 mmHg 58%
    11:00 +19°C° 0 mm 3 mps 736 mmHg 53%
    12:00 +20°C° 0 mm 3 mps 736 mmHg 51%
    13:00 +21°C° 0 mm 3 mps 736 mmHg 50%
    14:00 +22°C° 0 mm 3 mps 736 mmHg 48%
    15:00 +21°C° 0 mm 3 mps 735 mmHg 53%
    16:00 +20°C° 0 mm 3 mps 735 mmHg 57%
    17:00 +19°C° 0 mm 3 mps 734 mmHg 62%
    18:00 +18°C° 0 mm 3 mps 734 mmHg 64%
    19:00 +17°C° 0 mm 3 mps 734 mmHg 66%
    20:00 +14°C° 0 mm 3 mps 734 mmHg 68%
    21:00 +14°C° 0 mm 3 mps 734 mmHg 68%
    22:00 +13°C° 0 mm 3 mps 734 mmHg 68%
    23:00 +13°C° 0 mm 3 mps 734 mmHg 69%

    Day after tomorrow, 16 October, Wednesday

    Time Temperature Precipitation Wind Pressure Humidity
    00:00 +13°C° 0 mm 3 mps 734 mmHg 67%
    01:00 +13°C° 0 mm 3 mps 734 mmHg 66%
    02:00 +13°C° 0 mm 3 mps 734 mmHg 65%
    03:00 +13°C° 0 mm 3 mps 734 mmHg 65%
    04:00 +13°C° 0 mm 3 mps 734 mmHg 65%
    05:00 +13°C° 0 mm 3 mps 734 mmHg 65%
    06:00 +13°C° 0 mm 3 mps 734 mmHg 66%
    07:00 +13°C° 0 mm 3 mps 735 mmHg 67%
    08:00 +14°C° 0 mm 3 mps 735 mmHg 68%
    09:00 +17°C° 0 mm 4 mps 735 mmHg 61%
    10:00 +19°C° 0 mm 4 mps 735 mmHg 55%
    11:00 +22°C° 0 mm 5 mps 736 mmHg 49%
    12:00 +22°C° 0 mm 5 mps 736 mmHg 49%
    13:00 +23°C° 0 mm 5 mps 736 mmHg 50%
    14:00 +23°C° 0 mm 5 mps 736 mmHg 50%
    15:00 +21°C° 0 mm 4 mps 736 mmHg 56%
    16:00 +20°C° 0 mm 3 mps 736 mmHg 63%
    17:00 +19°C° 0 mm 2 mps 736 mmHg 69%
    18:00 +18°C° 0 mm 1 mps 736 mmHg 73%
    19:00 +16°C° 0 mm 1 mps 736 mmHg 78%
    20:00 +15°C° 0 mm 1 mps 737 mmHg 82%
    21:00 +14°C° 0 mm 1 mps 737 mmHg 83%
    22:00 +14°C° 0 mm 1 mps 737 mmHg 84%
    23:00 +12°C° 0 mm 0 mps 737 mmHg 86%

    17 October, Thursday

    Time Temperature Precipitation Wind Pressure Humidity
    00:00 +12°C° 0 mm 0 mps 737 mmHg 87%
    01:00 +12°C° 0 mm 0 mps 737 mmHg 88%
    02:00 +11°C° 0 mm 0 mps 737 mmHg 89%
    03:00 +11°C° 0 mm 0 mps 737 mmHg 89%
    04:00 +11°C° 0 mm 0 mps 737 mmHg 90%
    05:00 +10°C° 0 mm 0 mps 737 mmHg 90%
    06:00 +11°C° 0 mm 0 mps 737 mmHg 89%
    07:00 +11°C° 0 mm 0 mps 737 mmHg 88%
    08:00 +11°C° 0 mm 0 mps 737 mmHg 87%
    09:00 +13°C° 0 mm 0 mps 738 mmHg 80%
    10:00 +15°C° 0 mm 0 mps 738 mmHg 73%
    11:00 +17°C° 0 mm 0 mps 738 mmHg 66%
    12:00 +18°C° 0 mm 0 mps 738 mmHg 63%
    13:00 +20°C° 0 mm 1 mps 738 mmHg 60%
    14:00 +21°C° 0 mm 1 mps 738 mmHg 57%
    15:00 +20°C° 0 mm 1 mps 737 mmHg 62%
    16:00 +19°C° 0 mm 1 mps 737 mmHg 67%
    17:00 +18°C° 0 mm 1 mps 737 mmHg 71%
    18:00 +16°C° 0 mm 1 mps 737 mmHg 75%
    19:00 +15°C° 0 mm 1 mps 738 mmHg 78%
    20:00 +13°C° 0 mm 0 mps 738 mmHg 82%
    21:00 +14°C° 0 mm 1 mps 738 mmHg 83%
    22:00 +14°C° 0 mm 1 mps 738 mmHg 84%
    23:00 +13°C° 0 mm 1 mps 738 mmHg 85%

    18 October, Friday

    Time Temperature Precipitation Wind Pressure Humidity
    00:00 +13°C° 0 mm 1 mps 738 mmHg 86%
    01:00 +13°C° 0 mm 1 mps 738 mmHg 87%
    02:00 +13°C° 0 mm 1 mps 738 mmHg 88%
    03:00 +13°C° 0 mm 1 mps 738 mmHg 88%
    04:00 +12°C° 0 mm 1 mps 738 mmHg 89%
    05:00 +12°C° 0 mm 1 mps 738 mmHg 89%
    06:00 +12°C° 0 mm 1 mps 738 mmHg 88%
    07:00 +12°C° 0 mm 1 mps 738 mmHg 88%
    08:00 +13°C° 0 mm 1 mps 738 mmHg 87%
    09:00 +15°C° 0 mm 2 mps 738 mmHg 79%
    10:00 +17°C° 0 mm 2 mps 739 mmHg 71%
    11:00 +19°C° 0 mm 2 mps 739 mmHg 63%
    12:00 +19°C° 0 mm 2 mps 739 mmHg 61%
    13:00 +20°C° 0 mm 3 mps 738 mmHg 58%
    14:00 +21°C° 0 mm 3 mps 738 mmHg 55%
    15:00 +20°C° 0 mm 2 mps 738 mmHg 59%
    16:00 +19°C° 0 mm 2 mps 738 mmHg 63%
    17:00 +18°C° 0 mm 2 mps 737 mmHg 67%
    18:00 +17°C° 0 mm 2 mps 737 mmHg 69%
    19:00 +16°C° 0 mm 2 mps 737 mmHg 71%
    20:00 +15°C° 0 mm 2 mps 738 mmHg 73%
    21:00 +14°C° 0 mm 2 mps 738 mmHg 74%
    22:00 +14°C° 0 mm 2 mps 738 mmHg 75%
    23:00 +14°C° 0 mm 2 mps 738 mmHg 75%

    19 October, Saturday

    Time Temperature Precipitation Wind Pressure Humidity
    00:00 +13°C° 0 mm 2 mps 737 mmHg 76%
    01:00 +13°C° 0 mm 2 mps 737 mmHg 76%
    02:00 +13°C° 0 mm 2 mps 737 mmHg 77%
    03:00 +13°C° 0 mm 2 mps 737 mmHg 77%
    04:00 +12°C° 0 mm 2 mps 737 mmHg 78%
    05:00 +12°C° 0 mm 2 mps 737 mmHg 79%
    06:00 +12°C° 0 mm 2 mps 737 mmHg 78%
    07:00 +13°C° 0 mm 2 mps 737 mmHg 78%
    08:00 +13°C° 0 mm 2 mps 737 mmHg 77%
    09:00 +15°C° 0 mm 2 mps 737 mmHg 70%
    10:00 +17°C° 0 mm 2 mps 737 mmHg 63%
    11:00 +19°C° 0 mm 2 mps 737 mmHg 56%
    12:00 +20°C° 0 mm 2 mps 737 mmHg 53%
    13:00 +21°C° 0 mm 2 mps 737 mmHg 50%
    14:00 +23°C° 0 mm 2 mps 737 mmHg 46%
    15:00 +21°C° 0 mm 2 mps 736 mmHg 51%
    16:00 +20°C° 0 mm 2 mps 736 mmHg 56%
    17:00 +19°C° 0 mm 2 mps 736 mmHg 61%
    18:00 +18°C° 0 mm 2 mps 736 mmHg 63%
    19:00 +17°C° 0 mm 2 mps 736 mmHg 65%
    20:00 +16°C° 0 mm 2 mps 736 mmHg 67%
    21:00 +16°C° 0 mm 2 mps 736 mmHg 67%
    22:00 +15°C° 0 mm 2 mps 736 mmHg 68%
    23:00 +15°C° 0 mm 2 mps 736 mmHg 68%
    Show more